Theta_e
316 316 315 313 313 313 312 312 312 312 312 313 314 315 315 316 317 317 317 317 315 314 310 309 308 307 306
309 309 308 309 308 308 308 308 308 308 309 310 310 311 312 313 314 315 315 315 314 312 309 307 306 305 304
305 304 305 304 303 304 303 303 304 303 305 305 305 306 307 310 311 313 314 313 313 311 307 305 303 302 302
300 300 301 301 302 303 303 303 303 304 304 303 304 304 304 306 309 312 312 311 310 308 305 303 302 301 299
298 298 298 298 298 300 300 300 299 301 303 303 304 304 305 304 306 310 310 309 308 306 304 303 301 300 298
296 297 297 297 297 298 297 297 298 298 299 300 300 302 303 303 304 305 307 308 306 304 302 299 298 297 296
293 293 293 293 295 295 296 297 297 298 298 298 299 300 301 302 302 303 303 306 304 302 300 298 296 296 295
291 292 292 292 293 294 295 296 296 296 297 297 298 299 300 300 301 301 301 303 303 301 299 299 297 295 296
290 291 292 293 294 294 294 294 294 294 296 297 297 297 297 298 299 298 299 301 300 299 298 297 294 292 292
289 289 290 292 292 292 293 294 293 294 296 295 296 295 295 294 296 296 296 298 298 297 295 292 292 291 289
287 288 289 290 292 291 292 292 292 292 293 293 294 293 292 292 290 293 292 293 295 294 292 291 290 289 290
286 287 287 288 289 290 291 291 290 290 291 292 293 293 291 289 289 290 290 291 291 291 290 289 287 288 289
286 286 286 286 288 289 290 290 289 289 290 291 291 291 291 291 289 288 289 289 289 289 289 287 287 287 289
285 285 285 286 287 288 289 289 288 289 289 289 290 290 289 289 289 288 289 288 288 288 287 286 286 288 289
284 285 285 286 287 288 289 288 287 288 288 287 286 287 288 288 288 288 288 288 287 287 286 285 286 287 288
284 284 285 286 287 287 288 288 288 288 288 287 285 286 286 286 287 287 287 287 286 286 285 284 285 286 287
282 283 284 285 286 287 287 288 288 288 288 288 285 286 285 286 285 286 286 286 286 286 285 285 285 285 286
Wind_Speed
10 12 16 23 26 28 28 30 31 33 35 35 33 30 32 35 40 40 37 37 36 32 27 22 19 18 18
14 16 19 20 22 24 26 28 29 31 33 34 33 32 31 36 40 39 40 38 37 32 29 25 20 19 18
14 18 20 23 26 26 28 29 29 30 30 30 29 29 29 33 38 39 42 40 39 34 29 26 22 21 18
14 17 20 22 23 25 25 25 29 30 31 32 32 31 27 27 32 41 43 43 39 34 29 27 25 22 21
12 15 16 18 19 21 21 23 26 28 31 31 32 32 31 28 25 36 43 42 39 34 30 28 26 22 20
14 13 14 18 20 22 21 19 11 20 26 28 32 34 36 33 32 28 38 42 38 34 28 23 20 19 17
15 17 20 21 23 23 22 23 23 25 27 26 26 30 34 35 33 31 31 39 39 31 27 22 22 18 16
17 19 21 25 28 27 29 26 25 23 25 15 23 27 31 33 29 30 28 30 37 32 26 24 24 19 18
19 21 22 21 21 23 20 19 14 19 22 19 21 24 25 29 26 25 24 24 29 28 24 23 19 15 14
19 20 18 17 18 18 21 17 14 10 8 7 14 10 6 8 11 13 16 17 20 20 20 17 15 11 14
18 18 19 18 19 21 23 21 18 15 21 15 8 7 6 7 7 10 12 14 15 15 13 11 10 7 12
16 16 18 23 25 26 24 20 17 19 21 19 12 11 6 3 3 4 7 11 16 17 13 9 7 7 8
14 14 18 24 22 25 24 20 17 15 14 14 15 12 12 7 2 2 3 6 11 13 8 6 2 4 5
17 21 22 21 22 23 23 20 17 13 12 12 10 10 10 7 6 4 6 4 11 9 5 3 3 1 1
18 21 20 20 20 21 21 18 9 12 13 11 5 3 3 3 2 6 9 4 8 12 10 9 7 5 4
19 18 19 19 19 20 19 17 14 14 14 11 3 3 1 6 7 9 7 7 7 12 12 11 9 7 7
19 19 20 21 18 18 17 17 17 14 13 12 8 5 1 1 2 3 6 9 11 10 9 5 10 9 9
Wind_Direction
340 326 316 311 308 305 308 306 305 303 301 302 300 295 284 283 276 264 247 244 241 243 243 247 245 247 253
313 321 319 319 316 312 312 310 308 303 300 298 298 297 290 282 278 267 244 242 241 243 246 250 242 246 250
315 317 315 313 313 309 310 308 309 310 312 314 310 305 296 285 275 258 246 244 245 243 244 245 241 246 250
325 322 321 322 316 311 310 310 307 309 306 304 306 308 310 294 280 256 250 247 244 241 240 239 239 247 254
321 315 314 317 315 313 316 321 316 313 304 301 303 303 305 309 302 262 246 245 245 241 237 236 238 241 248
322 310 309 314 315 311 309 313 310 315 316 301 303 298 303 304 302 283 262 250 243 239 232 230 233 238 248
316 313 311 309 312 310 309 302 294 296 299 298 292 288 296 299 298 289 275 251 234 225 227 227 232 240 247
317 308 305 302 305 300 297 291 293 295 302 293 289 286 293 293 287 283 275 253 231 223 221 235 241 243 251
307 303 302 302 301 306 305 303 294 298 295 284 284 286 286 292 291 284 274 253 218 216 218 227 234 239 256
317 320 314 314 325 322 316 305 299 304 313 276 291 288 295 286 296 290 263 234 217 222 213 207 217 243 262
316 322 324 320 317 326 322 308 296 281 285 295 277 256 240 297 320 311 262 241 214 202 203 209 227 232 268
319 321 327 325 319 325 325 319 306 292 297 292 258 261 251 286 287 317 248 233 223 210 196 213 236 252 277
321 321 322 323 320 322 326 326 317 304 305 301 259 275 268 264 255 216 169 210 202 183 200 210 222 277 222
326 323 323 321 320 322 319 325 317 314 312 303 295 283 269 248 229 187 196 160 178 180 181 211 156 222 169
322 317 314 313 317 318 315 314 287 299 305 315 322 276 251 224 164 176 180 174 183 172 163 159 138 113 92
316 313 310 308 309 315 312 299 298 308 301 299 256 177 144 68 76 134 145 159 169 169 172 146 108 101 79
313 316 316 314 309 314 310 306 308 304 299 281 251 235 220 111 66 84 146 155 157 161 167 140 112 94 79